Time,TemperatureF,DewpointF,PressureIn,WindDirection,WindDirectionDegrees,WindSpeedMPH,WindSpeedGustMPH,Humidity,HourlyPrecipIn,Conditions,Clouds,dailyrainin,SoftwareType,DateUTC
2013-10-25 00:00:00,78.5,76.6,29.94,NE,48,7.0,12.0,94,0.13,RA,,0.00,WeatherDisplay:10.37,2013-10-25 06:00:00,
2013-10-25 00:15:00,79.7,77.5,29.94,East,89,10.0,19.0,93,0.00,CLR,,0.00,WeatherDisplay:10.37,2013-10-25 06:15:00,
2013-10-25 00:30:00,80.3,77.1,29.94,ESE,102,8.0,16.0,90,0.00,CLR,,0.00,WeatherDisplay:10.37,2013-10-25 06:30:00,
2013-10-25 00:45:00,80.5,77.3,29.93,East,84,6.0,15.0,90,0.00,CLR,,0.00,WeatherDisplay:10.37,2013-10-25 06:45:00,
2013-10-25 01:00:00,80.3,76.8,29.92,ENE,76,6.0,13.0,89,0.00,CLR,,0.00,WeatherDisplay:10.37,2013-10-25 07:00:00,
2013-10-25 01:15:00,80.6,77.1,29.91,ENE,73,6.0,10.0,89,0.00,CLR,,0.00,WeatherDisplay:10.37,2013-10-25 07:15:00,
2013-10-25 01:30:00,81.1,76.8,29.91,East,82,10.0,15.0,87,0.00,CLR,,0.00,WeatherDisplay:10.37,2013-10-25 07:30:00,
2013-10-25 01:45:00,81.2,76.9,29.91,ENE,73,5.0,13.0,87,0.00,CLR,,0.00,WeatherDisplay:10.37,2013-10-25 07:45:00,
2013-10-25 02:00:00,81.0,76.4,29.91,ENE,61,9.0,13.0,86,0.00,CLR,,0.00,WeatherDisplay:10.37,2013-10-25 08:00:00,
2013-10-25 02:15:00,81.3,76.3,29.91,NE,55,7.0,14.0,85,0.00,CLR,,0.00,WeatherDisplay:10.37,2013-10-25 08:15:00,
2013-10-25 02:30:00,81.6,77.0,29.92,ENE,59,7.0,13.0,86,0.00,CLR,,0.00,WeatherDisplay:10.37,2013-10-25 08:30:00,
2013-10-25 02:45:00,81.7,76.7,29.92,ENE,75,7.0,14.0,85,0.00,CLR,,0.00,WeatherDisplay:10.37,2013-10-25 08:45:00,
2013-10-25 03:00:00,82.2,76.9,29.92,ENE,65,5.0,16.0,84,0.00,CLR,,0.00,WeatherDisplay:10.37,2013-10-25 09:00:00,
2013-10-25 03:15:00,82.4,77.4,29.92,ENE,76,8.0,15.0,85,0.00,CLR,,0.00,WeatherDisplay:10.37,2013-10-25 09:15:00,
2013-10-25 03:30:00,81.2,76.6,29.92,NNE,29,7.0,18.0,86,0.00,CLR,,0.00,WeatherDisplay:10.37,2013-10-25 09:30:00,
2013-10-25 03:45:00,79.3,76.1,29.92,NNE,22,7.0,15.0,90,0.00,CLR,,0.00,WeatherDisplay:10.37,2013-10-25 09:45:00,
2013-10-25 04:00:00,81.1,76.8,29.92,NNE,27,7.0,14.0,87,0.00,CLR,,0.00,WeatherDisplay:10.37,2013-10-25 10:00:00,
2013-10-25 04:15:00,79.8,76.6,29.92,North,9,7.0,13.0,90,0.00,CLR,,0.00,WeatherDisplay:10.37,2013-10-25 10:15:00,
2013-10-25 04:30:00,79.8,76.9,29.92,North,360,7.0,9.0,91,0.00,CLR,,0.00,WeatherDisplay:10.37,2013-10-25 10:30:00,
2013-10-25 04:45:00,79.5,77.0,29.93,NNE,13,6.0,10.0,92,0.04,RA,,0.04,WeatherDisplay:10.37,2013-10-25 10:45:00,
2013-10-25 05:00:00,78.9,76.7,29.93,North,0,7.0,10.0,93,0.01,CLR,,0.05,WeatherDisplay:10.37,2013-10-25 11:00:00,
2013-10-25 05:15:00,78.7,76.5,29.93,NNE,14,5.0,10.0,93,0.00,CLR,,0.05,WeatherDisplay:10.37,2013-10-25 11:15:00,
2013-10-25 05:30:00,80.5,77.6,29.94,East,95,18.0,28.0,91,0.00,CLR,,0.05,WeatherDisplay:10.37,2013-10-25 11:30:00,
2013-10-25 05:45:00,74.6,72.2,29.95,ESE,116,24.0,36.0,92,0.08,RA,,0.13,WeatherDisplay:10.37,2013-10-25 11:45:00,
2013-10-25 06:00:00,75.8,74.3,29.94,ESE,116,15.0,24.0,95,0.05,RA,,0.18,WeatherDisplay:10.37,2013-10-25 12:00:00,
2013-10-25 06:15:00,76.5,74.7,29.95,East,99,9.0,18.0,94,0.02,RA,,0.20,WeatherDisplay:10.37,2013-10-25 12:15:00,
2013-10-25 06:30:00,77.3,75.4,29.97,ESE,106,14.0,18.0,94,0.01,CLR,,0.21,WeatherDisplay:10.37,2013-10-25 12:30:00,
2013-10-25 06:45:00,78.1,76.0,29.98,ESE,118,8.0,15.0,93,0.01,RA,,0.22,WeatherDisplay:10.37,2013-10-25 12:45:00,
2013-10-25 07:00:00,78.4,75.9,29.99,ESE,119,12.0,13.0,92,0.02,RA,,0.24,WeatherDisplay:10.37,2013-10-25 13:00:00,
2013-10-25 07:15:00,78.5,76.3,30.00,ESE,115,2.0,12.0,93,0.03,RA,,0.27,WeatherDisplay:10.37,2013-10-25 13:15:00,
2013-10-25 07:30:00,78.3,76.1,30.00,ESE,102,2.0,7.0,93,0.02,RA,,0.29,WeatherDisplay:10.37,2013-10-25 13:30:00,
2013-10-25 07:45:00,78.1,76.2,30.01,ENE,63,2.0,6.0,94,0.03,RA,,0.32,WeatherDisplay:10.37,2013-10-25 13:45:00,
2013-10-25 08:00:00,78.0,76.1,30.01,ENE,70,2.0,9.0,94,0.04,RA,,0.36,WeatherDisplay:10.37,2013-10-25 14:00:00,
2013-10-25 08:15:00,77.8,75.6,30.01,NE,44,3.0,12.0,93,0.03,RA,,0.39,WeatherDisplay:10.37,2013-10-25 14:15:00,
2013-10-25 08:30:00,77.7,75.8,30.02,NNE,20,3.0,13.0,94,0.03,RA,,0.42,WeatherDisplay:10.37,2013-10-25 14:30:00,
2013-10-25 08:45:00,77.3,75.1,30.02,ENE,69,6.0,14.0,93,0.02,RA,,0.44,WeatherDisplay:10.37,2013-10-25 14:45:00,
2013-10-25 09:00:00,76.9,74.4,30.02,ENE,58,5.0,13.0,92,0.03,RA,,0.47,WeatherDisplay:10.37,2013-10-25 15:00:00,
2013-10-25 09:15:00,77.4,74.6,30.02,NE,54,6.0,13.0,91,0.01,RA,,0.48,WeatherDisplay:10.37,2013-10-25 15:15:00,
2013-10-25 09:30:00,77.5,74.7,30.02,NE,40,7.0,15.0,91,0.01,,,0.49,WeatherDisplay:10.37,2013-10-25 15:30:00,
2013-10-25 09:45:00,77.6,74.1,30.00,ENE,57,7.0,13.0,89,0.00,CLR,,0.49,WeatherDisplay:10.37,2013-10-25 15:45:00,
2013-10-25 10:00:00,78.5,74.6,30.00,NE,43,8.0,13.0,88,0.00,CLR,,0.49,WeatherDisplay:10.37,2013-10-25 16:00:00,
2013-10-25 10:15:00,78.5,75.0,29.99,North,11,6.0,10.0,89,0.00,CLR,,0.49,WeatherDisplay:10.37,2013-10-25 16:15:00,
2013-10-25 10:30:00,78.8,75.9,29.99,NNE,22,6.0,12.0,91,0.00,CLR,,0.49,WeatherDisplay:10.37,2013-10-25 16:30:00,
2013-10-25 10:45:00,78.9,76.4,29.99,North,8,6.0,12.0,92,0.00,CLR,,0.49,WeatherDisplay:10.37,2013-10-25 16:45:00,
2013-10-25 11:00:00,78.6,75.8,29.99,NE,35,8.0,13.0,91,0.01,RA,,0.50,WeatherDisplay:10.37,2013-10-25 17:00:00,
2013-10-25 11:15:00,79.5,75.6,29.99,ENE,77,9.0,18.0,88,0.00,CLR,,0.50,WeatherDisplay:10.37,2013-10-25 17:15:00,
2013-10-25 11:30:00,80.0,75.8,29.98,NE,53,7.0,14.0,87,0.00,CLR,,0.50,WeatherDisplay:10.37,2013-10-25 17:30:00,
2013-10-25 11:45:00,80.8,76.6,29.97,NE,52,9.0,15.0,87,0.00,CLR,,0.50,WeatherDisplay:10.37,2013-10-25 17:45:00,
2013-10-25 12:00:00,81.5,77.3,29.96,NE,47,7.0,18.0,87,0.00,CLR,,0.50,WeatherDisplay:10.37,2013-10-25 18:00:00,
2013-10-25 12:15:00,81.4,77.2,29.95,NE,40,9.0,16.0,87,0.00,CLR,,0.50,WeatherDisplay:10.37,2013-10-25 18:15:00,
2013-10-25 12:30:00,81.6,77.4,29.94,NE,36,6.0,14.0,87,0.00,CLR,,0.50,WeatherDisplay:10.37,2013-10-25 18:30:00,
2013-10-25 12:45:00,81.9,76.6,29.93,NE,49,6.0,14.0,84,0.00,CLR,,0.50,WeatherDisplay:10.37,2013-10-25 18:45:00,
2013-10-25 13:00:00,82.8,76.7,29.92,NE,43,5.0,12.0,82,0.00,CLR,,0.50,WeatherDisplay:10.37,2013-10-25 19:00:00,
2013-10-25 13:15:00,83.3,77.2,29.92,NE,49,6.0,13.0,82,0.00,CLR,,0.50,WeatherDisplay:10.37,2013-10-25 19:15:00,
2013-10-25 13:30:00,82.7,76.3,29.91,ENE,58,7.0,13.0,81,0.00,CLR,,0.50,WeatherDisplay:10.37,2013-10-25 19:30:00,
2013-10-25 13:45:00,83.0,76.2,29.91,NE,53,7.0,14.0,80,0.00,CLR,,0.50,WeatherDisplay:10.37,2013-10-25 19:45:00,
2013-10-25 14:00:00,83.0,76.2,29.90,ENE,59,7.0,14.0,80,0.00,CLR,,0.50,WeatherDisplay:10.37,2013-10-25 20:00:00,
2013-10-25 14:15:00,84.5,76.5,29.91,ENE,76,3.0,13.0,77,0.00,CLR,,0.50,WeatherDisplay:10.37,2013-10-25 20:15:00,
2013-10-25 14:30:00,85.2,77.2,29.90,NE,51,8.0,13.0,77,0.00,CLR,,0.50,WeatherDisplay:10.37,2013-10-25 20:30:00,
2013-10-25 14:45:00,85.1,76.7,29.90,NE,52,8.0,14.0,76,0.00,CLR,,0.50,WeatherDisplay:10.37,2013-10-25 20:45:00,
2013-10-25 15:00:00,84.3,76.7,29.90,NE,40,7.0,14.0,78,0.00,CLR,,0.50,WeatherDisplay:10.37,2013-10-25 21:00:00,
2013-10-25 15:15:00,84.3,77.0,29.90,ENE,60,8.0,13.0,79,0.00,CLR,,0.50,WeatherDisplay:10.37,2013-10-25 21:15:00,
2013-10-25 15:30:00,84.1,77.3,29.90,ENE,60,7.0,12.0,80,0.00,CLR,,0.50,WeatherDisplay:10.37,2013-10-25 21:30:00,
2013-10-25 15:45:00,83.7,77.2,29.90,NE,47,7.0,14.0,81,0.00,CLR,,0.50,WeatherDisplay:10.37,2013-10-25 21:45:00,
2013-10-25 16:00:00,83.4,77.0,29.90,NE,40,9.0,14.0,81,0.00,CLR,,0.50,WeatherDisplay:10.37,2013-10-25 22:00:00,
2013-10-25 16:15:00,83.0,77.0,29.90,NE,54,9.0,19.0,82,0.00,CLR,,0.50,WeatherDisplay:10.37,2013-10-25 22:15:00,
2013-10-25 16:26:00,82.9,77.2,29.91,NE,38,9.0,16.0,83,0.00,CLR,,0.50,WeatherDisplay:10.37,2013-10-25 22:26:00,
2013-10-25 16:45:00,82.4,77.1,29.91,NNE,33,7.0,19.0,84,0.00,CLR,,0.50,WeatherDisplay:10.37,2013-10-25 22:45:00,
2013-10-25 17:00:00,81.9,76.9,29.91,NNE,33,9.0,19.0,85,0.00,CLR,,0.50,WeatherDisplay:10.37,2013-10-25 23:00:00,
2013-10-25 17:15:00,81.7,77.1,29.91,NE,38,8.0,16.0,86,0.00,CLR,,0.50,WeatherDisplay:10.37,2013-10-25 23:15:00,
2013-10-25 17:30:00,81.7,77.1,29.91,NNE,21,7.0,16.0,86,0.00,CLR,,0.50,WeatherDisplay:10.37,2013-10-25 23:30:00,
2013-10-25 17:45:00,81.7,77.4,29.92,NNE,33,10.0,16.0,87,0.00,CLR,,0.50,WeatherDisplay:10.37,2013-10-25 23:45:00,
2013-10-25 18:00:00,82.2,77.2,29.92,NE,47,10.0,21.0,85,0.00,CLR,,0.50,WeatherDisplay:10.37,2013-10-26 00:00:00,
2013-10-25 18:15:00,82.1,77.1,29.92,NNE,22,9.0,21.0,85,0.00,CLR,,0.50,WeatherDisplay:10.37,2013-10-26 00:15:00,
2013-10-25 18:30:00,80.1,76.9,29.93,NE,53,8.0,28.0,90,0.20,RA,,0.70,WeatherDisplay:10.37,2013-10-26 00:30:00,
2013-10-25 18:45:00,76.2,73.4,29.93,NNE,19,13.0,23.0,91,0.31,RA,,1.01,WeatherDisplay:10.37,2013-10-26 00:45:00,
2013-10-25 19:00:00,77.3,75.1,29.94,NNE,24,8.0,15.0,93,0.00,CLR,,1.01,WeatherDisplay:10.37,2013-10-26 01:00:00,
2013-10-25 19:15:00,79.2,77.0,29.94,ENE,58,15.0,24.0,93,0.02,RA,,1.03,WeatherDisplay:10.37,2013-10-26 01:15:00,
2013-10-25 19:30:00,80.1,77.6,29.94,NE,40,10.0,24.0,92,0.01,RA,,1.04,WeatherDisplay:10.37,2013-10-26 01:30:00,
2013-10-25 19:45:00,80.5,77.6,29.95,NNE,28,10.0,21.0,91,0.00,CLR,,1.04,WeatherDisplay:10.37,2013-10-26 01:45:00,
2013-10-25 20:00:00,80.7,77.5,29.95,NNE,31,9.0,19.0,90,0.00,CLR,,1.04,WeatherDisplay:10.37,2013-10-26 02:00:00,
2013-10-25 20:15:00,81.3,77.4,29.96,NE,41,12.0,21.0,88,0.00,CLR,,1.04,WeatherDisplay:10.37,2013-10-26 02:15:00,
2013-10-25 20:30:00,80.4,75.9,29.97,NE,39,9.0,19.0,86,0.00,CLR,,1.04,WeatherDisplay:10.37,2013-10-26 02:30:00,
2013-10-25 20:45:00,80.4,76.5,29.96,NNE,22,7.0,21.0,88,0.00,CLR,,1.04,WeatherDisplay:10.37,2013-10-26 02:45:00,
2013-10-25 21:00:00,80.0,76.8,29.97,NNE,27,9.0,19.0,90,0.00,CLR,,1.04,WeatherDisplay:10.37,2013-10-26 03:00:00,
2013-10-25 21:15:00,78.8,76.6,29.96,NE,48,9.0,23.0,93,0.12,RA,,1.16,WeatherDisplay:10.37,2013-10-26 03:15:00,
2013-10-25 21:30:00,78.1,75.5,29.96,NNE,23,12.0,18.0,92,0.00,CLR,,1.16,WeatherDisplay:10.37,2013-10-26 03:30:00,
2013-10-25 21:45:00,77.8,75.3,29.96,NNE,20,7.0,14.0,92,0.00,CLR,,1.16,WeatherDisplay:10.37,2013-10-26 03:45:00,
2013-10-25 22:00:00,79.6,77.4,29.96,ENE,62,9.0,16.0,93,0.00,CLR,,1.16,WeatherDisplay:10.37,2013-10-26 04:00:00,
2013-10-25 22:15:00,81.0,77.8,29.96,ENE,77,6.0,18.0,90,0.00,CLR,,1.16,WeatherDisplay:10.37,2013-10-26 04:15:00,
2013-10-25 22:30:00,81.4,77.8,29.95,ENE,63,8.0,15.0,89,0.00,CLR,,1.16,WeatherDisplay:10.37,2013-10-26 04:30:00,
2013-10-25 22:45:00,81.9,78.0,29.95,NE,54,12.0,18.0,88,0.00,CLR,,1.16,WeatherDisplay:10.37,2013-10-26 04:45:00,
2013-10-25 23:00:00,82.2,77.6,29.94,NE,47,9.0,18.0,86,0.00,CLR,,1.16,WeatherDisplay:10.37,2013-10-26 05:00:00,
2013-10-25 23:15:00,82.8,77.8,29.93,ENE,66,9.0,21.0,85,0.00,CLR,,1.16,WeatherDisplay:10.37,2013-10-26 05:15:00,
2013-10-25 23:30:00,82.7,78.1,29.92,ENE,72,6.0,16.0,86,0.00,CLR,,1.16,WeatherDisplay:10.37,2013-10-26 05:30:00,
2013-10-25 23:45:00,82.4,78.1,29.92,ENE,71,10.0,20.0,87,0.00,CLR,,1.16,WeatherDisplay:10.37,2013-10-26 05:45:00,